Weather in Brides-les-Bains

France     45°27′07″N   6°33′58″E
temp.,
°C
wind,
m/s
gust,
m/s
humid.,
%
clouds,
%
prec.,
mm/h
press.,
hPa
HPBL,
m
19 april, mon
mon1923:000nw1198100 0.8 1020141
02:00−1n009599 1.1 1020130
05:00−1nne009397 0.1 101976
08:00−1ene118670 0.1 1019232
11:00+3nw117071 0.1 1018983
14:00+5nw215877 0.1 10161478
17:00+5nw226175 0.3 10151206
20:00+2nnw117862 0.6 101610
20 april, tue
tue2023:000se118660 0.1 101913
02:00−2ese22886 0.1 101918
05:00−3ese22855 0.0 101932
08:000ese22745 0.0 1018100
11:00+6nw11574 0.0 1015926
14:00+9nw114873 0.1 10121800
17:00+8nw125074 0.6 10111520
20:00+4nnw017642 1.6 101311
21 april, wed
wed2123:00+1se228763 0.3 101723
02:00+1ese218699 0.4 101818
05:000se1187100 0.0 101714
08:00+2se018652 0.0 1017108
11:00+7nw116779 0.1 1015876
14:00+7wnw2269100 1.2 10131000
17:00+5w2287100 1.9 1014758
20:00+3n0197100 5.9 1016288
22 april, thu
thu2223:00+2se1199100 4.8 1018172
02:00+2ene119795 6.6 1018164
05:00+1se009485 0.1 1018116
08:00+1e118764 0.1 101888
11:00+6nw217457 0.0 1017877
14:00+6wnw227677 0.1 1016811
17:00+7nw126888 0.1 10151113
20:00+5nw118753 0.3 101671
23 april, fri
fri2323:00+2se119464 0.0 101913
02:00+3ne1187100 0.0 101837
05:00+3nne118089 0.0 101737
08:00+2ene118115 0.0 1018103
11:00+7nw21626 0.0 1016889
14:00+10wnw215215 0.0 10151466
17:00+10wnw325538 0.0 10161343
20:00+6wnw227722 0.1 101892